Regional Weather Roundup
Issued by NWS

Home | Current Version | Previous Version | Text Only | Print | Product List | Glossary Off
Versions: 1 2 3 4 5 6 7 8 9 10 11 12 13 14 15 16 17 18 19 20 21 22 23 24 25 26 27 28 29 30 31 32 33 34 35 36 37 38 39 40 41 42 43 44 45 46 47 48 49 50

000
ASUS43 KMKX 262210
RWRWI

WISCONSIN REGIONAL WEATHER ROUNDUP
NATIONAL WEATHER SERVICE MILWAUKEE/SULLIVAN WI
500 PM CDT THU MAR 26 2015

NOTE: "FAIR" INDICATES FEW OR NO CLOUDS BELOW 12,000 FEET WITH NO
SIGNIFICANT WEATHER AND/OR OBSTRUCTIONS TO VISIBILITY.

WIZ001-002-006>008-014>016-023>028-262300-
NORTHWEST WISCONSIN

CITY           SKY/WX    TMP DP  RH WIND       PRES   REMARKS
SUPERIOR ARPT  SUNNY     32   4  31 N13G20    30.13R WCI  22
ASHLAND        MOSUNNY   30   9  41 N15       30.12R WCI  19
HAYWARD        MOSUNNY   29   5  36 N10G21    30.07R WCI  20
SIREN          SUNNY     34   2  26 N15G23    30.09R WCI  24
CUMBERLAND     PTSUNNY   32   9  37 N14       30.05S WCI  22
RICE LAKE      CLOUDY    33  13  45 N12       30.07S WCI  24
CHETEK         CLOUDY    32  14  48 N8        30.07R WCI  25
LADYSMITH      CLOUDY    30  13  48 N15       30.07R WCI  19
EAU CLAIRE     CLOUDY    33  13  43 NW12      30.06S WCI  24
MENOMONIE      CLOUDY    33  15  46 NW12      30.07S WCI  25
NEW RICHMOND   CLOUDY    34  12  41 NW13G20   30.09S WCI  25
OSCEOLA        PTSUNNY   36  11  35 N13G21    30.11F WCI  27
$$

WIZ003>005-009-010-017-018-262300-
NORTH CENTRAL WISCONSIN

CITY           SKY/WX    TMP DP  RH WIND       PRES   REMARKS
MANITOWISH WTR CLOUDY    19   8  61 N8G20     30.04R WCI   9
ARBOR VITAE    CLOUDY    22  11  63 N13G20    30.02R WCI  10
WOODRUFF       CLOUDY    22  11  63 N13G20    30.02R WCI  10
RHINELANDER    CLOUDY    22  10  60 NW12G17   30.01R WCI  10
EAGLE RIVER    CLOUDY    21   9  59 N15       30.01R WCI   8
LAND O LAKES   LGT SNOW  20  13  74 N10G16    30.02R WCI   8
PHILLIPS       CLOUDY    25  12  57 N14G20    30.03S WCI  13
TOMAHAWK       CLOUDY    24  12  58 N9G17     30.03R WCI  15
MEDFORD        CLOUDY    26  13  56 N12       30.02R WCI  16
MERRILL        CLOUDY    26  12  55 NW13      30.02R WCI  15
$$

WIZ029-030-035-036-043>047-262300-
CENTRAL WISCONSIN

CITY           SKY/WX    TMP DP  RH WIND       PRES   REMARKS
WAUSAU         CLOUDY    28  13  53 NW10      30.00R WCI  19
MOSINEE        CLOUDY    28  16  59 NW12      30.01R WCI  18
MARSHFIELD     CLOUDY    30  16  56 NW14      30.02R WCI  19
STEVENS POINT  CLOUDY    28  13  54 NW9       30.02R WCI  19
WAUPACA        CLOUDY    34  15  45 N14       30.01R WCI  24
WAUTOMA        CLOUDY    32  16  52 N13       30.03R WCI  22
WISC RAPIDS    CLOUDY    31  14  49 N14G24    30.03R WCI  21
CAMP DOUGLAS   CLOUDY    34  18  51 NW12      30.02R WCI  25
$$

WIZ011>013-019>022-031-037>040-048>050-262300-
NORTHEAST WISCONSIN

CITY           SKY/WX    TMP DP  RH WIND       PRES   REMARKS
ANTIGO         CLOUDY    24  13  62 N14       29.99R WCI  12
SHAWANO        CLOUDY    32  16  51 NW10G17   30.00R WCI  24
OCONTO         CLOUDY    30  15  53 N14       30.00R WCI  19
STURGEON BAY   CLOUDY    28  12  50 N17       30.01R WCI  16
GREEN BAY      CLOUDY    32  18  56 NW14G21   30.00R WCI  22
MANITOWOC      FLURRIES  32  21  64 NW14      29.99R WCI  22
APPLETON       CLOUDY    30  16  55 NW17      29.99R WCI  18
CLINTONVILLE   CLOUDY    32  16  51 NW14      30.01R WCI  22
OSHKOSH        CLOUDY    32  17  54 NW10      30.00R WCI  24
$$

WIZ032>034-041-042-053>061-262300-
SOUTHWEST WISCONSIN

CITY           SKY/WX    TMP DP  RH WIND       PRES   REMARKS
LA CROSSE      CLOUDY    37  19  48 NW16      30.06R WCI  28
SPARTA         CLOUDY    34  16  48 N8        30.06R WCI  27
VIROQUA        CLOUDY    32  21  63 NW13      30.03R WCI  22
BOSCOBEL       CLOUDY    36  20  52 NW8       30.06R WCI  30
PRAIRIE DU CHI PTSUNNY   34  18  50 NW13G20   30.06S WCI  25
PLATTEVILLE    CLOUDY    34  23  65 W12       30.03R WCI  25
$$

WIZ056-057-062-063-064-067-068-262300-
SOUTH CENTRAL WISCONSIN

CITY           SKY/WX    TMP DP  RH WIND       PRES   REMARKS
REEDSBURG      CLOUDY    34  18  51 NW14      30.01R WCI  25
BARABOO/DELLS  CLOUDY    34  16  46 N9G18     30.00S WCI  27
LONE ROCK      CLOUDY    36  19  50 NW14      30.04R WCI  27
MINERAL POINT  CLOUDY    34  19  55 NW15G21   30.02R WCI  24
MADISON        CLOUDY    36  18  48 NW12G21   30.00R WCI  28
MIDDLETON      CLOUDY    37  19  48 NW14      30.00S WCI  29
WATERTOWN      CLOUDY    34  22  59 NW10G18   29.99R WCI  26
MONROE         CLOUDY    34  23  64 NW8G17    30.00R WCI  27
JANESVILLE     CLOUDY    37  21  52 NW15G21   30.00R WCI  28
$$

WIZ051-052-058>065-066-070>072-262300-
SOUTHEAST WISCONSIN

CITY           SKY/WX    TMP DP  RH WIND       PRES   REMARKS
MILWAUKEE      CLOUDY    35  19  52 NW12G20   29.99R WCI  27
WAUKESHA       CLOUDY    34  19  55 NW16      29.98R WCI  23
MILWAUKEE/TIMM CLOUDY    34  19  55 NW12      29.99R WCI  25
RACINE         CLOUDY    36  21  54 N13       30.00R WCI  27
BURLINGTON     CLOUDY    34  19  54 NW13      29.99R WCI  25
KENOSHA        CLOUDY    36  23  59 NW10      29.99R WCI  28
FOND DU LAC    CLOUDY    32  17  54 NW16      30.00R WCI  21
SHEBOYGAN      CLOUDY    32  19  58 NW15G23   29.98R WCI  22
WEST BEND      CLOUDY    32  19  59 NW15      29.99R WCI  22
JUNEAU         CLOUDY    32  19  56 NW16G22   30.00R WCI  22
$$

LSZ147-162-262300-
LAKE SUPERIOR

STATION/POSITION TIME  TEMP    WIND        PRES    WAVE
                       AIR SEA DIR/SP/G            HT/PER
                 (UTC) (F)     (DEG/KT/KT) (MB)    (FT/S)
DEVILS ISLAND    2200   25     350/ 15/ 17 1021.4R
PORT WING        2140   27      30/  7/ 10 1020.7S
SAXON HARBOR     2100   24      10/ 12/ 16 1020.0
$$

LMZ867-665-643>646-262300-
LAKE MICHIGAN

STATION/POSITION TIME  TEMP    WIND        PRES    WAVE
                       AIR SEA DIR/SP/G            HT/PER
                 (UTC) (F)     (DEG/KT/KT) (MB)    (FT/S)
NORTHPORT PIER   2106   27     340/ 23     1014.9R
SISTER BAY       2102   30     360/ 18/ 22   N/A
KEWAUNEE LAKESHO 2100   32     350/ 10/ 17 1013.8R
SHEBOYGAN LAKESH 2200   33     320/ 11/ 13 1016.4R
PORT WASHINGTON  2140   34     320/  7/ 12 1016.3R
MILWAUKEE LAKESH 2100   35     320/ 12/ 16   N/A
KENOSHA   LAKESH 2200   36     320/ 15/ 17 1015.9R
$$

TC  - TEMPERATURE IN CELSIUS
VSB - VISIBILITY IN STATUTE MILES
WCI - WIND CHILL INDEX
HX  - HEAT INDEX




USA.gov is the U.S. government's official web portal to all federal, state and local government web resources and services.